�N����,�����b,�ŏ������i�x�j,���ϕ����i�x�j,�ő啗���i�x�j,�ŏ�����(m/s),���ϕ���(m/s),�ő啗��(m/s),�C��(���j,���x�i���j,�C��(hPa),�~�J��(mm),�~�J����(�b�j,�~�J���x(mm/h),�ő�~�J���x(mm/h),�~�Ђ傤��(hit/���u),�~�Ђ傤����(�b�j,�~�Ђ傤���x(hit/���uh),�ő�~�Ђ傤���x(hit/���uh),�q�[�^���x(���j,�q�[�^�[�d���iV),�d���d���iV),�Q�Ɠd���iV)
2014/08/15,10:00:01,212,227,237,3.9,4.3,4.8,29.2,84.8,1004.1,0.00,0,0.0,////,0.0,0,0.0,////,////,////,////,////
2014/08/15,10:10:01,236,241,245,3.3,4.3,5.1,29.2,84.6,1004.2,0.00,0,0.0,////,0.0,0,0.0,////,30.3,0.0,12.3,3.513
2014/08/15,10:20:01,212,223,230,2.3,2.6,3.0,29.6,84.9,1004.1,0.00,0,0.0,////,0.0,0,0.0,////,31.7,0.0,12.3,3.513
2014/08/15,10:30:01,235,238,243,3.1,3.3,3.4,29.9,83.9,1004.2,0.00,0,0.0,////,0.0,0,0.0,////,32.5,0.0,12.3,3.513
2014/08/15,10:40:01,216,225,236,2.9,3.1,3.2,30.3,83.1,1004.3,0.00,0,0.0,////,0.0,0,0.0,////,33.1,0.0,12.3,3.513
2014/08/15,10:50:01,225,229,233,1.1,1.3,1.4,30.5,82.6,1004.3,0.00,0,0.0,////,0.0,0,0.0,////,33.9,0.0,12.3,3.511
2014/08/15,11:00:01,191,207,215,3.5,3.8,4.0,30.8,81.1,1004.3,0.00,0,0.0,////,0.0,0,0.0,////,34.4,0.0,12.3,3.511
2014/08/15,11:10:01,242,246,253,2.9,3.0,3.2,30.8,81.3,1004.3,0.00,0,0.0,////,0.0,0,0.0,////,34.6,0.0,12.3,3.511
2014/08/15,11:20:01,245,267,282,2.1,2.4,2.8,31.0,81.7,1004.3,0.00,0,0.0,////,0.0,0,0.0,////,34.6,0.0,12.3,3.511
2014/08/15,11:30:01,218,226,234,2.5,3.0,3.5,30.7,81.8,1004.2,0.00,0,0.0,////,0.0,0,0.0,////,34.1,0.0,12.3,3.513
2014/08/15,11:40:01,232,245,267,1.6,2.5,3.3,30.2,83.8,1004.1,0.00,0,0.0,////,0.0,0,0.0,////,32.2,0.0,12.3,3.514
2014/08/15,11:50:01,250,263,276,1.7,1.8,2.1,30.3,84.6,1004.0,0.00,0,0.0,////,0.0,0,0.0,////,32.9,0.0,12.3,3.513
2014/08/15,12:00:01,223,230,235,3.6,4.0,4.5,30.5,82.1,1004.0,0.00,0,0.0,////,0.0,0,0.0,////,33.7,0.0,12.2,3.511
2014/08/15,12:10:01,239,245,249,3.6,4.7,5.8,30.5,81.9,1004.1,0.00,0,0.0,////,0.0,0,0.0,////,33.4,0.0,12.3,3.511
2014/08/15,12:20:01,229,238,246,3.4,4.0,4.7,30.5,82.5,1003.7,0.00,0,0.0,////,0.0,0,0.0,////,33.6,0.0,12.3,3.511
2014/08/15,12:30:01,241,246,254,3.4,4.5,5.1,30.2,82.6,1003.7,0.00,0,0.0,////,0.0,0,0.0,////,32.0,0.0,12.3,3.511
2014/08/15,12:40:01,228,248,279,2.4,3.0,4.0,29.9,83.9,1003.4,0.00,0,0.0,////,0.0,0,0.0,////,31.7,0.0,12.4,3.511
2014/08/15,12:50:01,232,238,248,3.3,3.8,4.3,30.4,81.1,1003.4,0.00,0,0.0,////,0.0,0,0.0,////,32.9,0.0,12.3,3.511
2014/08/15,13:00:01,238,241,243,3.2,3.4,3.7,30.7,82.3,1003.3,0.00,0,0.0,////,0.0,0,0.0,////,33.9,0.0,12.3,3.511
2014/08/15,13:10:01,195,224,242,2.6,2.8,3.0,30.7,80.8,1003.1,0.00,0,0.0,////,0.0,0,0.0,////,34.1,0.0,12.3,3.513
2014/08/15,13:20:01,207,215,228,4.4,4.8,5.1,30.6,81.5,1003.0,0.00,0,0.0,////,0.0,0,0.0,////,33.7,0.0,12.3,3.511
2014/08/15,13:30:01,214,220,225,2.0,2.4,2.8,30.8,80.2,1003.0,0.00,0,0.0,////,0.0,0,0.0,////,33.7,0.0,12.3,3.513
2014/08/15,13:40:01,225,227,229,1.5,2.0,2.6,30.6,80.6,1003.0,0.00,0,0.0,////,0.0,0,0.0,////,33.1,0.0,12.3,3.513
2014/08/15,13:50:01,223,230,241,3.8,4.5,5.0,30.7,80.4,1002.9,0.00,0,0.0,////,0.0,0,0.0,////,33.4,0.0,12.3,3.511
2014/08/15,14:00:01,215,223,229,3.9,4.1,4.3,30.9,80.8,1002.9,0.00,0,0.0,////,0.0,0,0.0,////,33.7,0.0,12.3,3.511
2014/08/15,14:10:01,227,237,245,3.2,3.5,3.7,31.2,79.1,1002.9,0.00,0,0.0,////,0.0,0,0.0,////,34.4,0.0,12.3,3.510
2014/08/15,14:20:01,219,229,244,2.8,3.3,3.9,30.9,78.2,1002.9,0.00,0,0.0,////,0.0,0,0.0,////,34.1,0.0,12.3,3.513
2014/08/15,14:30:01,226,230,235,4.7,5.2,5.5,30.0,81.3,1002.9,0.00,0,0.0,////,0.0,0,0.0,////,31.5,0.0,12.3,3.511
2014/08/15,14:40:01,225,230,240,2.9,3.2,3.3,29.3,85.1,1002.8,0.02,170,0.0,////,0.0,0,0.0,////,29.3,0.0,12.3,3.511
2014/08/15,14:50:01,222,229,238,2.9,3.4,4.0,28.5,84.6,1002.7,0.29,320,0.1,////,0.0,0,0.0,////,28.2,0.0,12.3,3.513
2014/08/15,15:00:01,228,231,235,2.3,2.8,3.2,29.5,87.7,1002.6,0.05,200,0.0,////,0.0,0,0.0,////,29.6,0.0,12.3,3.513
2014/08/15,15:10:01,211,217,222,1.7,2.1,2.4,29.8,87.1,1002.6,0.00,0,0.0,////,0.0,0,0.0,////,31.0,0.0,12.3,3.511
2014/08/15,15:20:01,206,219,233,1.4,2.3,3.5,30.1,83.4,1002.7,0.00,0,0.0,////,0.0,0,0.0,////,32.5,0.0,12.3,3.511
2014/08/15,15:30:01,232,235,237,3.3,3.6,3.9,30.4,83.0,1002.7,0.00,0,0.0,////,0.0,0,0.0,////,32.7,0.0,12.3,3.511
2014/08/15,15:40:01,227,239,247,3.5,3.6,3.7,30.6,81.6,1002.8,0.00,0,0.0,////,0.0,0,0.0,////,32.7,0.0,12.3,3.511
2014/08/15,15:50:01,228,233,237,2.8,4.1,4.9,30.7,82.1,1002.7,0.00,0,0.0,////,0.0,0,0.0,////,32.9,0.0,12.3,3.511
2014/08/15,16:00:01,231,239,244,2.5,3.4,4.1,31.0,81.2,1002.7,0.00,0,0.0,////,0.0,0,0.0,////,33.7,0.0,12.3,3.511
2014/08/15,16:10:01,232,233,234,2.3,2.5,2.7,30.7,80.6,1002.5,0.00,0,0.0,////,0.0,0,0.0,////,32.9,0.0,12.3,3.511
2014/08/15,16:20:01,233,245,254,1.9,2.9,3.9,30.4,81.3,1002.6,0.00,0,0.0,////,0.0,0,0.0,////,32.2,0.0,12.3,3.513
2014/08/15,16:30:01,233,235,237,2.0,2.5,2.9,30.9,81.5,1002.7,0.00,0,0.0,////,0.0,0,0.0,////,33.4,0.0,12.3,3.511
2014/08/15,16:40:01,237,247,260,1.7,2.1,2.5,30.9,78.8,1002.7,0.00,0,0.0,////,0.0,0,0.0,////,33.7,0.0,12.3,3.511
2014/08/15,16:50:01,223,225,228,3.0,3.4,3.8,31.0,79.9,1002.8,0.00,0,0.0,////,0.0,0,0.0,////,33.4,0.0,12.3,3.510
2014/08/15,17:00:01,226,241,252,2.5,2.7,3.0,30.3,80.6,1002.8,0.00,0,0.0,////,0.0,0,0.0,////,31.7,0.0,12.4,3.511
2014/08/15,17:10:01,203,213,230,1.7,2.2,2.6,29.7,82.6,1002.8,0.00,0,0.0,////,0.0,0,0.0,////,30.3,0.0,12.3,3.513
2014/08/15,17:20:01,221,223,226,1.4,1.6,1.8,29.5,83.9,1002.7,0.00,0,0.0,////,0.0,0,0.0,////,29.6,0.0,12.3,3.513
2014/08/15,17:30:01,237,253,267,2.0,3.2,4.0,29.1,84.3,1002.5,0.00,0,0.0,////,0.0,0,0.0,////,29.1,0.0,12.3,3.513
2014/08/15,17:40:01,198,201,202,3.3,3.5,3.7,28.9,85.7,1002.3,0.00,0,0.0,////,0.0,0,0.0,////,28.9,0.0,12.3,3.513
2014/08/15,17:50:01,230,232,235,3.8,3.9,4.0,28.9,85.7,1002.2,0.00,0,0.0,////,0.0,0,0.0,////,28.7,0.0,12.3,3.513
2014/08/15,18:00:01,235,237,239,3.1,3.3,3.5,28.9,86.2,1002.2,0.00,0,0.0,////,0.0,0,0.0,////,28.7,0.0,12.3,3.513
2014/08/15,18:10:01,256,262,266,6.4,7.1,7.8,28.7,86.3,1002.3,0.00,0,0.0,////,0.0,0,0.0,////,28.4,0.0,12.3,3.515
2014/08/15,18:20:01,266,267,268,2.1,2.9,4.0,28.1,87.2,1002.6,0.00,0,0.0,////,0.0,0,0.0,////,27.9,0.0,12.3,3.513
2014/08/15,18:30:01,251,257,260,2.1,2.5,3.2,28.1,87.8,1002.9,0.00,0,0.0,////,0.0,0,0.0,////,27.5,0.0,12.3,3.513
2014/08/15,18:40:01,237,243,248,3.3,3.8,4.1,28.0,88.7,1002.8,0.00,0,0.0,////,0.0,0,0.0,////,27.2,0.0,12.3,3.513
2014/08/15,18:50:01,252,261,271,1.8,2.1,2.5,28.0,89.7,1002.6,0.00,0,0.0,////,0.0,0,0.0,////,27.2,0.0,12.3,3.513
2014/08/15,19:00:01,238,242,245,3.8,4.0,4.2,28.0,90.3,1002.6,0.00,0,0.0,////,0.0,0,0.0,////,27.2,0.0,12.3,3.513
2014/08/15,19:10:01,223,229,234,2.1,2.3,2.5,28.0,89.9,1002.7,0.00,0,0.0,////,0.0,0,0.0,////,27.0,0.0,12.3,3.511
2014/08/15,19:20:01,224,229,238,2.1,2.4,2.5,27.8,88.7,1002.6,0.00,0,0.0,////,0.0,0,0.0,////,27.0,0.0,12.3,3.514
2014/08/15,19:30:01,230,241,249,2.3,2.5,2.7,28.0,88.2,1002.6,0.00,0,0.0,////,0.0,0,0.0,////,27.2,0.0,12.3,3.513
2014/08/15,19:40:01,229,232,235,3.6,3.8,4.0,28.2,88.8,1002.7,0.00,0,0.0,////,0.0,0,0.0,////,27.2,0.0,12.3,3.511
2014/08/15,19:50:01,226,234,240,2.9,3.1,3.3,28.2,89.5,1002.8,0.00,0,0.0,////,0.0,0,0.0,////,27.2,0.0,12.3,3.513
2014/08/15,20:00:01,212,220,229,2.6,2.9,3.1,28.2,89.5,1003.1,0.00,0,0.0,////,0.0,0,0.0,////,27.2,0.0,12.3,3.513
2014/08/15,20:10:01,201,211,224,1.2,1.3,1.4,28.1,88.7,1003.2,0.00,0,0.0,////,0.0,0,0.0,////,27.4,0.0,12.3,3.513
2014/08/15,20:20:01,231,234,236,2.5,2.8,3.2,28.1,87.2,1003.3,0.00,0,0.0,////,0.0,0,0.0,////,27.4,0.0,12.3,3.513
2014/08/15,20:30:01,194,202,215,2.0,2.2,2.3,28.1,87.3,1003.4,0.00,0,0.0,////,0.0,0,0.0,////,27.4,0.0,12.3,3.513
2014/08/15,20:40:01,207,214,218,2.6,2.7,2.8,28.0,87.0,1003.3,0.00,0,0.0,////,0.0,0,0.0,////,27.2,0.0,12.3,3.514
2014/08/15,20:50:01,181,183,184,1.7,1.9,2.1,28.0,88.1,1003.3,0.00,0,0.0,////,0.0,0,0.0,////,27.0,0.0,12.3,3.513
2014/08/15,21:00:01,201,205,212,1.8,2.3,2.6,27.9,89.0,1003.3,0.00,0,0.0,////,0.0,0,0.0,////,26.8,0.0,12.3,3.514
2014/08/15,21:10:01,203,212,221,2.0,2.2,2.3,27.7,89.4,1003.3,0.00,0,0.0,////,0.0,0,0.0,////,26.8,0.0,12.3,3.513
2014/08/15,21:20:01,202,207,213,1.4,1.7,2.0,27.7,88.8,1003.3,0.00,0,0.0,////,0.0,0,0.0,////,26.8,0.0,12.3,3.513
2014/08/15,21:30:01,204,212,221,1.7,1.9,2.2,27.7,87.9,1003.2,0.00,0,0.0,////,0.0,0,0.0,////,26.8,0.0,12.3,3.511
2014/08/15,21:40:01,220,221,222,3.4,3.5,3.6,27.8,87.6,1003.2,0.00,0,0.0,////,0.0,0,0.0,////,27.2,0.0,12.3,3.514
2014/08/15,21:50:01,203,218,234,1.3,1.6,2.0,28.0,87.0,1003.3,0.00,0,0.0,////,0.0,0,0.0,////,27.2,0.0,12.3,3.513
2014/08/15,22:00:01,180,196,209,2.1,2.4,2.7,28.0,86.5,1003.3,0.00,0,0.0,////,0.0,0,0.0,////,27.0,0.0,12.3,3.511
2014/08/15,22:10:01,224,227,230,2.4,2.6,2.7,27.9,86.3,1003.2,0.00,0,0.0,////,0.0,0,0.0,////,26.8,0.0,12.3,3.513
2014/08/15,22:20:01,196,202,206,1.4,1.4,1.5,27.9,86.8,1003.4,0.00,0,0.0,////,0.0,0,0.0,////,27.0,0.0,12.3,3.511
2014/08/15,22:30:01,207,218,232,1.7,2.0,2.2,27.6,87.1,1003.4,0.00,0,0.0,////,0.0,0,0.0,////,26.7,0.0,12.3,3.513
2014/08/15,22:40:01,194,198,201,1.4,1.6,1.7,27.6,87.6,1003.5,0.00,0,0.0,////,0.0,0,0.0,////,26.7,0.0,12.3,3.514
2014/08/15,22:50:01,195,199,202,1.8,1.8,1.9,27.5,88.0,1003.4,0.00,0,0.0,////,0.0,0,0.0,////,26.5,0.0,12.3,3.511
2014/08/15,23:00:01,187,192,195,2.1,2.4,2.6,27.5,87.7,1003.4,0.00,0,0.0,////,0.0,0,0.0,////,26.5,0.0,12.3,3.514
2014/08/15,23:10:01,197,198,198,1.6,1.8,2.1,27.6,87.5,1003.3,0.00,0,0.0,////,0.0,0,0.0,////,26.5,0.0,12.3,3.513
2014/08/15,23:20:01,178,182,186,2.6,2.9,3.1,27.6,87.1,1003.3,0.00,0,0.0,////,0.0,0,0.0,////,26.5,0.0,12.3,3.513
2014/08/15,23:30:01,185,187,188,1.9,2.1,2.3,27.6,86.7,1003.2,0.00,0,0.0,////,0.0,0,0.0,////,26.5,0.0,12.3,3.513
2014/08/15,23:40:01,191,198,206,2.5,2.6,2.7,27.6,86.9,1003.2,0.00,0,0.0,////,0.0,0,0.0,////,26.5,0.0,12.3,3.513
2014/08/15,23:50:01,216,217,217,2.1,2.3,2.6,27.6,87.3,1003.3,0.00,0,0.0,////,0.0,0,0.0,////,26.7,0.0,12.3,3.513
2014/08/16,00:00:01,194,196,198,1.5,1.6,1.7,27.6,87.4,1003.3,0.00,0,0.0,////,0.0,0,0.0,////,26.7,0.0,12.3,3.511
2014/08/16,00:10:01,184,187,192,2.0,2.2,2.4,27.5,87.3,1003.3,0.00,0,0.0,////,0.0,0,0.0,////,26.7,0.0,12.3,3.513
2014/08/16,00:20:01,194,202,208,1.3,1.5,1.7,27.6,86.4,1003.3,0.00,0,0.0,////,0.0,0,0.0,////,26.7,0.0,12.3,3.513
2014/08/16,00:30:01,221,231,237,1.1,1.3,1.6,27.6,85.8,1003.1,0.00,0,0.0,////,0.0,0,0.0,////,26.7,0.0,12.3,3.513
2014/08/16,00:40:01,205,207,209,2.4,2.6,2.7,27.7,85.1,1002.9,0.00,0,0.0,////,0.0,0,0.0,////,26.8,0.0,12.3,3.513
2014/08/16,00:50:01,224,236,248,1.2,1.5,1.8,27.6,85.1,1002.9,0.00,0,0.0,////,0.0,0,0.0,////,26.7,0.0,12.3,3.513
2014/08/16,01:00:01,232,233,236,1.8,2.0,2.1,27.7,85.9,1002.9,0.00,0,0.0,////,0.0,0,0.0,////,26.7,0.0,12.3,3.513
2014/08/16,01:10:01,217,223,228,2.2,2.4,2.5,27.7,86.6,1002.8,0.00,0,0.0,////,0.0,0,0.0,////,26.5,0.0,12.3,3.514
2014/08/16,01:20:01,211,222,230,1.7,1.9,2.1,27.7,87.5,1002.7,0.00,0,0.0,////,0.0,0,0.0,////,26.7,0.0,12.3,3.513
2014/08/16,01:30:01,185,195,205,1.7,1.9,2.1,27.5,88.3,1002.5,0.00,0,0.0,////,0.0,0,0.0,////,26.5,0.0,12.3,3.513
2014/08/16,01:40:01,212,218,223,1.8,2.1,2.4,27.4,88.4,1002.3,0.00,0,0.0,////,0.0,0,0.0,////,26.8,0.0,12.2,3.513
2014/08/16,01:50:01,192,192,193,2.0,2.1,2.2,27.3,88.5,1002.1,0.00,0,0.0,////,0.0,0,0.0,////,26.5,0.0,12.3,3.511
2014/08/16,02:00:01,200,201,202,1.4,1.6,1.8,27.3,88.6,1002.0,0.00,0,0.0,////,0.0,0,0.0,////,26.3,0.0,12.3,3.511
2014/08/16,02:10:01,200,203,206,1.9,2.1,2.4,27.3,88.6,1002.2,0.00,0,0.0,////,0.0,0,0.0,////,26.3,0.0,12.3,3.511
2014/08/16,02:20:01,183,200,211,1.7,1.9,2.3,27.3,88.8,1002.2,0.00,0,0.0,////,0.0,0,0.0,////,26.2,0.0,12.3,3.511
2014/08/16,02:30:01,198,203,207,1.5,1.6,1.9,27.4,89.0,1002.4,0.00,0,0.0,////,0.0,0,0.0,////,26.2,0.0,12.3,3.513
2014/08/16,02:40:01,193,195,198,1.5,1.6,1.8,27.4,89.0,1002.5,0.00,0,0.0,////,0.0,0,0.0,////,26.3,0.0,12.3,3.513
2014/08/16,02:50:01,215,223,229,1.7,2.0,2.1,27.5,87.9,1002.3,0.00,0,0.0,////,0.0,0,0.0,////,26.7,0.0,12.3,3.511
2014/08/16,03:00:01,194,207,215,1.0,1.4,1.8,27.5,87.6,1002.2,0.00,0,0.0,////,0.0,0,0.0,////,26.7,0.0,12.2,3.514
2014/08/16,03:10:01,210,211,213,1.9,2.0,2.1,27.5,87.6,1002.1,0.00,0,0.0,////,0.0,0,0.0,////,26.8,0.0,12.3,3.511
2014/08/16,03:20:01,174,179,183,1.4,1.6,2.0,27.5,87.3,1002.0,0.00,0,0.0,////,0.0,0,0.0,////,26.7,0.0,12.3,3.513
2014/08/16,03:30:01,191,199,209,1.7,1.8,2.0,27.4,87.0,1001.8,0.00,0,0.0,////,0.0,0,0.0,////,26.5,0.0,12.3,3.513
2014/08/16,03:40:01,177,179,180,2.1,2.2,2.3,27.4,86.7,1002.1,0.00,0,0.0,////,0.0,0,0.0,////,26.2,0.0,12.3,3.513
2014/08/16,03:50:01,195,214,228,4.4,4.9,5.5,27.5,85.5,1002.4,0.00,0,0.0,////,0.0,0,0.0,////,26.7,0.0,12.3,3.513
2014/08/16,04:00:01,187,192,202,3.8,4.5,5.8,27.1,81.8,1002.4,0.00,0,0.0,////,0.0,0,0.0,////,26.3,0.0,12.3,3.513
2014/08/16,04:10:01,203,206,212,3.4,3.7,4.0,26.8,82.9,1002.4,0.00,0,0.0,////,0.0,0,0.0,////,26.0,0.0,12.3,3.513
2014/08/16,04:20:01,178,188,194,4.9,5.7,7.1,26.0,86.5,1002.1,0.01,120,0.4,////,0.0,0,0.0,////,25.1,0.0,12.3,3.513
2014/08/16,04:30:01,199,206,218,2.0,3.4,4.9,25.3,88.6,1002.3,0.15,410,0.1,////,0.0,0,0.0,////,24.1,0.0,12.3,3.513
2014/08/16,04:40:01,206,208,211,8.5,9.6,10.3,24.5,88.8,1002.2,0.14,580,0.9,////,0.0,0,0.0,////,23.2,0.0,12.3,3.514
2014/08/16,04:50:01,186,189,192,4.1,4.6,5.2,24.0,89.7,1001.9,0.02,280,0.0,////,0.0,0,0.0,////,22.7,0.0,12.3,3.513
2014/08/16,05:00:01,210,212,215,4.8,5.0,5.4,24.0,90.5,1002.1,0.00,0,0.0,////,0.0,0,0.0,////,22.7,0.0,12.3,3.511
2014/08/16,05:10:01,213,223,230,2.4,2.6,2.9,24.1,90.8,1002.0,0.00,0,0.0,////,0.0,0,0.0,////,22.9,0.0,12.3,3.511
2014/08/16,05:20:01,208,210,212,2.2,2.6,3.2,24.0,90.4,1001.9,0.00,0,0.0,////,0.0,0,0.0,////,23.1,0.0,12.3,3.511
2014/08/16,05:30:01,191,195,200,3.0,3.4,3.7,24.1,90.0,1001.9,0.00,0,0.0,////,0.0,0,0.0,////,22.9,0.0,12.3,3.513
2014/08/16,05:40:01,200,202,205,2.4,2.9,3.2,24.2,88.3,1002.0,0.00,10,0.0,////,0.0,0,0.0,////,23.4,0.0,12.3,3.513
2014/08/16,05:50:01,212,216,224,1.6,1.9,2.2,24.5,87.8,1002.2,0.08,390,1.5,////,0.0,0,0.0,////,23.4,0.0,12.3,3.513
2014/08/16,06:00:01,204,218,229,1.4,1.7,1.9,24.7,88.6,1002.2,0.38,590,2.0,////,0.0,0,0.0,////,23.2,0.0,12.3,3.513
2014/08/16,06:10:01,173,181,188,1.1,1.4,1.9,24.7,89.4,1001.7,0.11,470,0.0,////,0.0,0,0.0,////,23.1,0.0,12.3,3.513
2014/08/16,06:20:01,124,139,153,1.0,1.1,1.2,24.7,90.0,1001.6,0.01,20,0.0,////,0.0,0,0.0,////,23.4,0.0,12.3,3.511
2014/08/16,06:30:01,155,156,158,2.1,2.2,2.4,25.1,90.8,1001.9,0.00,10,0.0,////,0.0,0,0.0,////,23.9,0.0,12.3,3.513
2014/08/16,06:40:01,195,202,209,2.3,2.6,2.9,25.8,90.9,1002.2,0.00,0,0.0,////,0.0,0,0.0,////,24.6,0.0,12.3,3.513
2014/08/16,06:50:01,202,212,219,0.9,1.2,1.5,26.0,89.9,1002.6,0.00,0,0.0,////,0.0,0,0.0,////,25.0,0.0,12.3,3.514
2014/08/16,07:00:01,228,234,236,2.2,2.3,2.4,26.0,89.9,1002.8,0.00,0,0.0,////,0.0,0,0.0,////,24.8,0.0,12.2,3.513
2014/08/16,07:10:01,246,249,253,3.3,3.6,3.9,26.2,90.6,1002.8,0.00,0,0.0,////,0.0,0,0.0,////,25.0,0.0,12.3,3.514
2014/08/16,07:20:01,223,239,256,1.7,1.9,2.0,26.6,90.8,1003.0,0.00,10,0.0,////,0.0,0,0.0,////,25.3,0.0,12.3,3.514
2014/08/16,07:30:01,239,240,240,3.0,3.6,3.9,26.8,91.0,1003.0,0.00,0,0.0,////,0.0,0,0.0,////,25.5,0.0,12.3,3.513
2014/08/16,07:40:01,232,235,240,2.2,2.6,2.9,26.7,91.2,1003.0,0.11,300,1.9,////,0.0,0,0.0,////,25.5,0.0,12.3,3.511
2014/08/16,07:50:01,239,240,241,0.9,1.0,1.1,26.6,91.7,1003.0,0.18,580,0.7,////,0.0,0,0.0,////,25.5,0.0,12.2,3.513
2014/08/16,08:00:01,190,198,205,0.4,0.5,0.6,26.5,91.8,1002.8,0.13,560,1.2,////,0.0,0,0.0,////,25.3,0.0,12.3,3.513
2014/08/16,08:10:01,125,133,137,0.9,1.0,1.1,26.5,92.4,1002.8,0.12,570,0.3,////,0.0,0,0.0,////,25.3,0.0,12.2,3.511
2014/08/16,08:20:01,105,114,131,0.8,1.1,1.3,26.3,92.5,1002.8,0.03,290,0.0,////,0.0,0,0.0,////,25.3,0.0,12.3,3.513
2014/08/16,08:30:01,137,147,165,0.9,1.0,1.3,26.0,92.6,1002.6,0.00,50,0.0,////,0.0,0,0.0,////,25.0,0.0,12.3,3.514
2014/08/16,08:40:01,118,124,132,1.0,1.1,1.2,26.0,92.5,1002.6,0.02,190,0.0,////,0.0,0,0.0,////,24.8,0.0,12.3,3.513
2014/08/16,08:50:01,129,139,156,0.2,0.3,0.4,26.0,92.2,1002.9,0.03,330,0.4,////,0.0,0,0.0,////,25.1,0.0,12.3,3.513
2014/08/16,09:00:01,197,198,199,0.5,0.6,0.6,26.2,91.8,1003.2,0.04,320,0.0,////,0.0,0,0.0,////,25.1,0.0,12.3,3.513
2014/08/16,09:10:01,265,272,276,0.6,0.7,0.7,26.5,91.8,1003.5,0.01,140,0.0,////,0.0,0,0.0,////,25.5,0.0,12.3,3.513
2014/08/16,09:20:01,275,277,280,0.0,0.1,0.1,26.5,91.7,1003.6,0.00,10,0.0,////,0.0,0,0.0,////,25.6,0.0,12.3,3.514
2014/08/16,09:30:01,198,201,204,0.7,0.8,0.9,26.6,91.5,1003.6,0.00,0,0.0,////,0.0,0,0.0,////,26.2,0.0,12.3,3.514
2014/08/16,09:40:01,202,202,203,0.8,0.9,0.9,26.8,91.7,1003.4,0.00,0,0.0,////,0.0,0,0.0,////,26.5,0.0,12.3,3.514
2014/08/16,09:50:01,261,268,279,1.3,1.6,1.9,27.0,91.0,1003.5,0.00,0,0.0,////,0.0,0,0.0,////,26.8,0.0,12.3,3.511
2014/08/16,10:00:01,196,208,219,0.7,0.8,0.9,27.1,91.0,1003.5,0.00,0,0.0,////,0.0,0,0.0,////,27.0,0.0,12.3,3.513
2014/08/16,10:10:01,207,213,224,1.0,1.1,1.2,27.3,90.6,1003.6,0.00,0,0.0,////,0.0,0,0.0,////,27.4,0.0,12.3,3.511
2014/08/16,10:20:01,215,224,232,0.2,0.6,1.0,27.3,90.6,1003.5,0.00,0,0.0,////,0.0,0,0.0,////,27.4,0.0,12.3,3.513
2014/08/16,10:30:01,210,215,220,1.4,1.5,1.6,27.4,90.6,1003.5,0.00,0,0.0,////,0.0,0,0.0,////,27.5,0.0,12.3,3.513
2014/08/16,10:40:01,222,225,227,1.4,1.6,1.8,27.4,90.4,1003.3,0.00,0,0.0,////,0.0,0,0.0,////,27.9,0.0,12.3,3.513
2014/08/16,10:50:01,215,217,219,1.4,1.9,2.3,27.5,90.8,1003.3,0.00,0,0.0,////,0.0,0,0.0,////,27.7,0.0,12.3,3.511
2014/08/16,11:00:01,205,211,221,3.0,3.2,3.4,27.6,90.8,1003.4,0.00,0,0.0,////,0.0,0,0.0,////,28.2,0.0,12.3,3.511
2014/08/16,11:10:01,250,263,269,0.8,1.2,1.5,27.8,90.2,1003.3,0.00,0,0.0,////,0.0,0,0.0,////,28.7,0.0,12.3,3.511
2014/08/16,11:20:01,186,194,199,2.0,2.4,2.7,28.0,89.1,1003.2,0.00,0,0.0,////,0.0,0,0.0,////,29.4,0.0,12.3,3.511
2014/08/16,11:30:01,219,230,249,2.1,2.3,2.5,28.3,88.5,1003.2,0.00,0,0.0,////,0.0,0,0.0,////,30.3,0.0,12.2,3.513
2014/08/16,11:40:01,187,189,192,2.1,2.3,2.4,28.5,86.7,1003.1,0.00,0,0.0,////,0.0,0,0.0,////,30.8,0.0,12.3,3.510
2014/08/16,11:50:01,237,243,249,2.0,2.5,2.9,28.8,86.0,1003.1,0.00,0,0.0,////,0.0,0,0.0,////,31.5,0.0,12.3,3.513
2014/08/16,12:00:01,217,229,241,2.5,2.8,3.1,29.0,83.4,1003.2,0.00,0,0.0,////,0.0,0,0.0,////,32.2,0.0,12.3,3.513
2014/08/16,12:10:01,232,237,245,2.5,2.8,3.2,29.3,81.5,1003.2,0.00,0,0.0,////,0.0,0,0.0,////,32.5,0.0,12.3,3.511
2014/08/16,12:20:01,244,259,267,0.8,1.0,1.2,29.4,79.5,1003.1,0.00,0,0.0,////,0.0,0,0.0,////,33.1,0.0,12.3,3.511
2014/08/16,12:30:01,304,324,359,0.4,0.6,0.8,29.6,79.1,1003.0,0.00,0,0.0,////,0.0,0,0.0,////,33.2,0.0,12.3,3.513
2014/08/16,12:40:01,246,274,317,1.2,1.6,2.2,29.4,80.0,1002.8,0.00,0,0.0,////,0.0,0,0.0,////,32.5,0.0,12.3,3.511
2014/08/16,12:50:01,227,237,253,2.9,3.0,3.2,29.3,79.6,1002.9,0.00,0,0.0,////,0.0,0,0.0,////,31.8,0.0,12.3,3.513
2014/08/16,13:00:01,246,253,260,2.6,2.7,2.8,29.6,80.9,1002.9,0.00,0,0.0,////,0.0,0,0.0,////,32.7,0.0,12.3,3.511
2014/08/16,13:10:01,213,231,245,2.7,2.9,3.2,29.2,79.7,1002.8,0.00,0,0.0,////,0.0,0,0.0,////,31.7,0.0,12.3,3.513
2014/08/16,13:20:01,279,291,305,1.7,2.0,2.2,29.8,81.3,1002.9,0.00,0,0.0,////,0.0,0,0.0,////,32.9,0.0,12.3,3.513
2014/08/16,13:30:01,234,249,261,3.4,3.8,4.5,29.7,78.4,1002.9,0.00,0,0.0,////,0.0,0,0.0,////,32.7,0.0,12.3,3.511
2014/08/16,13:40:01,218,232,247,1.8,2.1,2.5,29.6,79.6,1002.9,0.00,0,0.0,////,0.0,0,0.0,////,32.2,0.0,12.3,3.510
2014/08/16,13:50:01,242,249,255,2.8,3.6,4.2,29.5,78.8,1002.9,0.00,0,0.0,////,0.0,0,0.0,////,32.0,0.0,12.3,3.513
2014/08/16,14:00:01,209,221,236,1.5,2.9,4.2,29.6,77.3,1002.8,0.00,0,0.0,////,0.0,0,0.0,////,32.2,0.0,12.3,3.511
2014/08/16,14:10:01,233,242,250,2.9,3.4,3.9,29.7,78.3,1002.8,0.00,0,0.0,////,0.0,0,0.0,////,32.4,0.0,12.3,3.511
2014/08/16,14:20:01,259,282,325,0.9,1.9,2.6,29.6,76.7,1002.8,0.00,0,0.0,////,0.0,0,0.0,////,32.2,0.0,12.3,3.513
2014/08/16,14:30:01,201,217,232,2.8,3.1,3.3,29.7,77.1,1002.8,0.00,0,0.0,////,0.0,0,0.0,////,32.2,0.0,12.3,3.513
2014/08/16,14:40:01,215,220,225,1.8,1.9,2.1,29.6,77.2,1002.8,0.00,0,0.0,////,0.0,0,0.0,////,32.0,0.0,12.3,3.513
2014/08/16,14:50:01,187,209,225,1.4,2.1,2.6,29.6,78.0,1002.8,0.00,0,0.0,////,0.0,0,0.0,////,31.7,0.0,12.3,3.511
2014/08/16,15:00:01,235,248,260,2.9,3.0,3.1,29.6,77.5,1002.8,0.00,0,0.0,////,0.0,0,0.0,////,32.2,0.0,12.3,3.513
2014/08/16,15:10:01,253,255,258,2.4,2.5,2.6,29.3,77.2,1002.8,0.00,0,0.0,////,0.0,0,0.0,////,31.8,0.0,12.3,3.511
2014/08/16,15:20:01,272,275,278,2.6,2.8,3.0,29.1,76.7,1002.7,0.00,0,0.0,////,0.0,0,0.0,////,31.2,0.0,12.3,3.513
2014/08/16,15:30:01,259,265,272,1.6,1.8,2.0,29.1,77.1,1002.5,0.00,0,0.0,////,0.0,0,0.0,////,31.0,0.0,12.3,3.513
2014/08/16,15:40:01,215,267,313,0.3,0.5,0.7,29.5,76.4,1002.5,0.00,0,0.0,////,0.0,0,0.0,////,32.5,0.0,12.3,3.513
2014/08/16,15:50:01,266,268,271,2.2,2.4,2.7,29.6,74.3,1002.7,0.00,0,0.0,////,0.0,0,0.0,////,33.2,0.0,12.3,3.511
2014/08/16,16:00:01,245,247,249,1.0,1.3,1.5,29.7,75.0,1002.8,0.00,0,0.0,////,0.0,0,0.0,////,32.5,0.0,12.3,3.513
2014/08/16,16:10:01,284,289,297,1.8,2.1,2.3,29.8,73.9,1003.0,0.00,0,0.0,////,0.0,0,0.0,////,32.9,0.0,12.3,3.511
2014/08/16,16:20:01,243,246,248,2.1,2.2,2.3,29.8,75.0,1003.0,0.00,0,0.0,////,0.0,0,0.0,////,33.2,0.0,12.3,3.511
2014/08/16,16:30:01,262,264,267,2.4,2.6,2.7,29.9,75.0,1003.0,0.00,0,0.0,////,0.0,0,0.0,////,33.4,0.0,12.3,3.513
2014/08/16,16:40:01,306,314,320,0.8,1.4,1.8,29.9,74.1,1003.1,0.00,0,0.0,////,0.0,0,0.0,////,33.4,0.0,12.3,3.511
2014/08/16,16:50:01,356,358,359,1.7,1.8,1.9,29.9,73.9,1003.1,0.00,0,0.0,////,0.0,0,0.0,////,32.5,0.0,12.3,3.513
2014/08/16,17:00:01,354,000,008,1.8,2.0,2.1,28.8,77.8,1003.2,0.00,0,0.0,////,0.0,0,0.0,////,31.0,0.0,12.3,3.513
2014/08/16,17:10:01,048,053,057,0.5,0.7,0.9,28.0,81.1,1003.1,0.00,0,0.0,////,0.0,0,0.0,////,28.6,0.0,12.3,3.511
2014/08/16,17:20:01,086,090,092,1.5,1.6,1.7,27.1,85.3,1003.1,0.08,30,2.2,////,0.0,0,0.0,////,26.8,0.0,12.3,3.514
2014/08/16,17:30:01,085,093,103,1.7,1.8,2.0,26.0,88.8,1002.9,1.34,430,15.5,////,0.0,0,0.0,////,25.5,0.0,12.3,3.513
2014/08/16,17:40:01,087,090,094,3.1,3.3,3.4,25.5,90.8,1002.9,2.76,590,2.3,////,0.0,0,0.0,////,24.4,0.0,12.3,3.513
2014/08/16,17:50:01,044,050,062,3.1,3.1,3.2,25.1,92.1,1003.6,13.57,590,95.0,////,0.0,0,0.0,////,23.9,0.0,12.3,3.513
2014/08/16,18:00:01,061,063,064,2.3,3.2,3.8,24.3,93.1,1003.3,3.74,590,2.5,////,0.0,0,0.0,////,23.4,0.0,12.3,3.514
2014/08/16,18:10:01,105,108,109,1.4,1.6,1.9,24.2,94.2,1003.4,0.00,10,0.0,////,0.0,0,0.0,////,23.2,0.0,12.3,3.513
2014/08/16,18:20:01,083,091,095,2.2,2.6,2.9,24.1,94.1,1003.3,0.00,0,0.0,////,0.0,0,0.0,////,23.2,0.0,12.3,3.513
2014/08/16,18:30:01,116,119,123,1.3,1.5,1.8,24.1,93.9,1003.2,0.00,0,0.0,////,0.0,0,0.0,////,23.1,0.0,12.3,3.514
2014/08/16,18:40:01,119,120,122,1.4,1.6,1.7,24.1,93.3,1003.2,0.00,0,0.0,////,0.0,0,0.0,////,23.2,0.0,12.3,3.515
2014/08/16,18:50:01,130,135,138,1.0,1.2,1.4,24.4,91.7,1003.2,0.00,0,0.0,////,0.0,0,0.0,////,23.4,0.0,12.3,3.513
2014/08/16,19:00:01,135,138,140,1.1,1.2,1.3,24.6,90.4,1003.3,0.00,0,0.0,////,0.0,0,0.0,////,23.6,0.0,12.2,3.514
2014/08/16,19:10:01,179,182,184,0.7,0.8,0.9,24.7,89.5,1003.4,0.00,0,0.0,////,0.0,0,0.0,////,23.7,0.0,12.3,3.511
2014/08/16,19:20:01,212,213,214,1.3,1.4,1.4,25.2,87.9,1003.4,0.00,0,0.0,////,0.0,0,0.0,////,24.1,0.0,12.3,3.513
2014/08/16,19:30:01,183,185,187,1.3,1.4,1.5,25.3,88.3,1003.5,0.00,0,0.0,////,0.0,0,0.0,////,24.3,0.0,12.3,3.513
2014/08/16,19:40:01,221,223,225,1.3,1.4,1.5,25.2,87.7,1003.5,0.00,0,0.0,////,0.0,0,0.0,////,23.9,0.0,12.3,3.513
2014/08/16,19:50:01,116,123,134,0.8,0.9,0.9,25.3,87.5,1003.4,0.00,0,0.0,////,0.0,0,0.0,////,24.3,0.0,12.3,3.513
2014/08/16,20:00:01,173,176,181,1.4,1.6,1.7,25.0,89.0,1003.6,0.00,0,0.0,////,0.0,0,0.0,////,23.7,0.0,12.3,3.513
2014/08/16,20:10:01,133,140,150,1.3,1.7,2.1,26.0,89.2,1003.7,0.00,0,0.0,////,0.0,0,0.0,////,24.4,0.0,12.3,3.513
2014/08/16,20:20:01,138,142,147,2.3,3.1,3.6,26.4,88.5,1003.7,0.00,0,0.0,////,0.0,0,0.0,////,25.3,0.0,12.3,3.513
2014/08/16,20:30:01,119,122,124,2.5,2.8,2.9,26.7,88.4,1003.8,0.00,0,0.0,////,0.0,0,0.0,////,25.5,0.0,12.3,3.514
2014/08/16,20:40:01,110,116,124,0.9,1.1,1.2,26.2,89.0,1003.8,0.00,0,0.0,////,0.0,0,0.0,////,25.1,0.0,12.3,3.513